This demonstration page uses our WeatherBlox Daily Observations layout. Learn more.

Left ArrowRight Arrow

Hourly Observations for March 22, 2018

Temp ( °F °C ) Dew Point ( °F °C ) Humidity (%) Winds ( mph kmh ) Pressure ( in mb ) Visibility ( mi km ) Precip ( " mm )
12:54 am 00:54 Partly Cloudy 43 6.1 31 -0.6 63 63 SSE 9 15 30.20 1023 10 16 0.00 0.00
1:54 am 01:54 Clear 45 7.2 32 0 61 61 SSE 8 13 30.19 1023 10 16 0.00 0.00
2:54 am 02:54 Mostly Cloudy 45 7.2 32 0 61 61 SSE 10 17 30.20 1023 10 16 0.00 0.00
3:54 am 03:54 Mostly Cloudy 45 7.2 33 0.6 63 63 SSE 10 17 30.19 1023 10 16 0.00 0.00
4:54 am 04:54 Mostly Clear 44 6.7 33 0.6 65 65 S 8 13 30.19 1022 10 16 0.00 0.00
5:54 am 05:54 Partly Cloudy 43 6.1 34 1.1 71 71 SSE 10 17 30.19 1022 10 16 0.00 0.00
6:54 am 06:54 Cloudy 44 6.7 34 1.1 68 68 S 10 17 30.19 1022 10 16 0.00 0.00
7:54 am 07:54 Cloudy 44 6.7 34 1.1 68 68 S 13 20 30.19 1023 8 13 0.00 0.00
8:54 am 08:54 Partly Cloudy 46 7.8 34 1.1 63 63 S 18 30 30.19 1022 9 14 0.00 0.00
9:54 am 09:54 Mostly Cloudy 50 10 35 1.7 57 57 S 17 28 30.20 1023 9 14 0.00 0.00
10:54 am 10:54 Sunny 54 12.2 35 1.7 49 49 S 16 26 30.19 1022 9 14 0.00 0.00
11:54 am 11:54 Sunny 57 13.9 41 5 55 55 S 13 20 30.18 1022 9 14 0.00 0.00
12:54 pm 12:54 Sunny 61 16.1 36 2.2 39 39 S 9 15 30.16 1021 9 14 0.00 0.00
1:54 pm 13:54 Sunny 63 17.2 37 2.8 38 38 S 12 19 30.13 1020 10 16 0.00 0.00
2:54 pm 14:54 Sunny 64 17.8 36 2.2 35 35 Calm 30.09 1019 10 16 0.00 0.00
3:54 pm 15:54 Sunny 66 18.9 37 2.8 34 34 VRB 7 11 30.09 1019 10 16 0.00 0.00
4:54 pm 16:54 Sunny 66 18.9 37 2.8 34 34 ESE 6 9 30.09 1019 10 16 0.00 0.00
5:54 pm 17:54 Sunny 67 19.4 37 2.8 33 33 ESE 3 6 30.08 1019 10 16 0.00 0.00
6:54 pm 18:54 Sunny 65 18.3 37 2.8 36 36 E 5 7 30.09 1019 10 16 0.00 0.00
7:54 pm 19:54 Clear 56 13.3 38 3.3 51 51 ENE 8 13 30.10 1019 10 16 0.00 0.00
8:54 pm 20:54 Clear 50 10 37 2.8 61 61 ENE 8 13 30.11 1020 10 16 0.00 0.00
9:54 pm 21:54 Clear 53 11.7 36 2.2 52 52 E 13 20 30.14 1021 10 16 0.00 0.00
10:54 pm 22:54 Clear 51 10.6 35 1.7 54 54 E 9 15 30.14 1021 10 16 0.00 0.00
11:54 pm 23:54 Clear 50 10 35 1.7 57 57 E 15 24 30.14 1021 10 16 0.00 0.00

Powered by AerisWeather